STARLINK-33709, 63419

Orbit data source: Space-Track

STARLINK-33709, 63419 is a payload satellite owned by SpaceX/Seattle (US) in LEO that was launched on Mon, 31 Mar 2025 UTC via an FALCON 9 launch vehicle from the Air Force Eastern Test Range (AFETR). Payload-class satellites include a variety of spacecraft equipped with specific instruments for various scientific and technological missions. These include communications satellites like Starlink; space stations such as the ISS; scientific satellites like the Hubble; Earth observation satellites from companies like Planet Labs, Umbra, and HawkEye 360; GPS; miniature CubeSats for education and research; and military/defense satellites.

Loading next visibility...
Identifier
63419, 2025-065W
Orbit
LEO
Country
Flag of USUS
Related business
Manufacturer
SpaceX/Seattle
Mission
Operational Commercial Communications
Bus & Motor
STARLINK V2MO, Unknown motor
Mass
575 kg wet, ~530 kg dry
Launch date (UTC)
2025-03-31 (1 year ago)
Launch vehicle
FALCON 9
Launch site
Air Force Eastern Test Range (AFETR)
Object type
Payload
Rocket body
Debris
Shape & HBR
Box + 2 Pan, 17.7 m
Radar Cross Section
36.964 m², Large (>1 m²)

Expand to show TLE details & history
Last TLE update: 14 hours ago

TLE from 14 hours ago
0 STARLINK-33709
1 63419U 25065W   26171.26196932  .00008702  00000-0  32514-3 0  9991
2 63419  42.9975 248.0409 0001160 213.6671 146.4107 15.27602097 68525
Epoch: 2026-06-20T06:17Z
TLE epoch observation values (Epoch: 2026-06-20T06:17:14.149Z)
Latitude
-0.00001°
Longitude
-114.74719°
Altitude
483.421 km
Speed
7.625 km/s
True Right ascension
16h 32m 09s
True Declination
0° 00' 00"
Sunlit
Object was in full shadow at epoch
Visualization orbit readout
Latitude
Unknown
Longitude
Unknown
Altitude
Unknown
Speed
Unknown
Apparent Right ascension
Unknown
Apparent Declination
Unknown
Sunlit
N/A
Visualization observer readout
Local Sidereal Time
07:17:48
Azimuth
Unknown
Elevation
Unknown
Doppler factor
Unknown
Orbital elements
Apogee altitude
485.725 km
Perigee altitude
484.132 km
Semi-major axis
6,863.066 km
Eccentricity
0.00012
Inclination
42.9975°
RAAN
248.0409°
Arg. of periapsis
213.6671°
True anomaly
146.41805°
Mean anomaly
146.4107°
Eccentric anomaly
146.41438°
Mean motion
3.81738 °/min
Orbital period
94.31 mins
BSTAR
0.00032514
Loading maneuver chart data...
Computing Atmospheric mass density...
Loading historical data...
Loading historical data...
Loading historical data...
Loading historical data...
Loading historical data...
Loading historical data...
Loading historical data...

Documentation

Showing up to 5 results
|